Year,Month,Day,Hour,Minute,Value (Times are PST for windgust in km/hr)
2010,06,02,00,00,3.20
2010,06,02,00,01,6.40
2010,06,02,00,02,8.10
2010,06,02,00,03,3.20
2010,06,02,00,04,3.20
2010,06,02,00,05,4.80
2010,06,02,00,06,4.80
2010,06,02,00,07,4.80
2010,06,02,00,08,4.80
2010,06,02,00,09,4.80
2010,06,02,00,10,6.40
2010,06,02,00,11,3.20
2010,06,02,00,12,4.80
2010,06,02,00,13,3.20
2010,06,02,00,14,4.80
2010,06,02,00,15,6.40
2010,06,02,00,16,6.40
2010,06,02,00,17,1.60
2010,06,02,00,18,1.60
2010,06,02,00,19,3.20
2010,06,02,00,20,6.40
2010,06,02,00,21,4.80
2010,06,02,00,22,3.20
2010,06,02,00,23,3.20
2010,06,02,00,24,1.60
2010,06,02,00,25,3.20
2010,06,02,00,26,6.40
2010,06,02,00,27,4.80
2010,06,02,00,28,3.20
2010,06,02,00,29,4.80
2010,06,02,00,30,3.20
2010,06,02,00,31,1.60
2010,06,02,00,32,8.10
2010,06,02,00,33,4.80
2010,06,02,00,34,4.80
2010,06,02,00,35,6.40
2010,06,02,00,36,3.20
2010,06,02,00,37,6.40
2010,06,02,00,38,6.40
2010,06,02,00,39,4.80
2010,06,02,00,40,6.40
2010,06,02,00,41,6.40
2010,06,02,00,42,6.40
2010,06,02,00,43,4.80
2010,06,02,00,44,8.10
2010,06,02,00,45,6.40
2010,06,02,00,46,6.40
2010,06,02,00,47,8.10
2010,06,02,00,48,9.60
2010,06,02,00,49,9.60
2010,06,02,00,50,3.20
2010,06,02,00,51,6.40
2010,06,02,00,52,4.80
2010,06,02,00,53,8.10
2010,06,02,00,54,8.10
2010,06,02,00,55,6.40
2010,06,02,00,56,4.80
2010,06,02,00,57,11.30
2010,06,02,00,58,8.10
2010,06,02,00,59,9.60
2010,06,02,01,00,8.10
2010,06,02,01,01,6.40
2010,06,02,01,02,3.20
2010,06,02,01,03,9.60
2010,06,02,01,04,9.60
2010,06,02,01,05,11.30
2010,06,02,01,06,11.30
2010,06,02,01,07,3.20
2010,06,02,01,08,9.60
2010,06,02,01,09,11.30
2010,06,02,01,10,9.60
2010,06,02,01,11,6.40
2010,06,02,01,12,8.10
2010,06,02,01,13,8.10
2010,06,02,01,14,3.20
2010,06,02,01,15,4.80
2010,06,02,01,16,8.10
2010,06,02,01,17,4.80
2010,06,02,01,18,1.60
2010,06,02,01,19,4.80
2010,06,02,01,20,6.40
2010,06,02,01,21,4.80
2010,06,02,01,22,8.10
2010,06,02,01,23,4.80
2010,06,02,01,24,8.10
2010,06,02,01,25,3.20
2010,06,02,01,26,6.40
2010,06,02,01,27,8.10
2010,06,02,01,28,8.10
2010,06,02,01,29,3.20
2010,06,02,01,30,4.80
2010,06,02,01,31,6.40
2010,06,02,01,32,6.40
2010,06,02,01,33,4.80
2010,06,02,01,34,3.20
2010,06,02,01,35,6.40
2010,06,02,01,36,6.40
2010,06,02,01,37,6.40
2010,06,02,01,38,3.20
2010,06,02,01,39,3.20
2010,06,02,01,40,4.80
2010,06,02,01,41,4.80
2010,06,02,01,42,3.20
2010,06,02,01,45,3.20
2010,06,02,01,46,4.80
2010,06,02,01,47,6.40
2010,06,02,01,48,6.40
2010,06,02,01,49,4.80
2010,06,02,01,50,3.20
2010,06,02,01,52,3.20
2010,06,02,01,53,1.60
2010,06,02,01,54,4.80
2010,06,02,01,55,4.80
2010,06,02,01,56,3.20
2010,06,02,01,57,1.60
2010,06,02,01,59,3.20
2010,06,02,02,00,1.60
2010,06,02,02,04,3.20
2010,06,02,02,05,1.60
2010,06,02,02,06,1.60
2010,06,02,02,07,4.80
2010,06,02,02,08,1.60
2010,06,02,02,09,3.20
2010,06,02,02,10,1.60
2010,06,02,02,11,3.20
2010,06,02,02,12,1.60
2010,06,02,02,15,3.20
2010,06,02,02,16,1.60
2010,06,02,02,17,1.60
2010,06,02,02,18,1.60
2010,06,02,02,19,1.60
2010,06,02,02,27,1.60
2010,06,02,02,28,1.60
2010,06,02,02,29,6.40
2010,06,02,02,30,4.80
2010,06,02,02,31,3.20
2010,06,02,02,32,8.10
2010,06,02,02,33,8.10
2010,06,02,02,34,8.10
2010,06,02,02,35,1.60
2010,06,02,02,36,3.20
2010,06,02,02,37,6.40
2010,06,02,02,38,6.40
2010,06,02,02,39,3.20
2010,06,02,02,40,4.80
2010,06,02,02,41,9.60
2010,06,02,02,42,6.40
2010,06,02,02,43,6.40
2010,06,02,02,44,3.20
2010,06,02,02,45,1.60
2010,06,02,02,46,4.80
2010,06,02,02,47,4.80
2010,06,02,02,48,3.20
2010,06,02,02,49,6.40
2010,06,02,02,50,9.60
2010,06,02,02,51,4.80
2010,06,02,02,52,4.80
2010,06,02,02,53,1.60
2010,06,02,02,54,4.80
2010,06,02,02,55,8.10
2010,06,02,02,56,6.40
2010,06,02,02,57,4.80
2010,06,02,02,58,1.60
2010,06,02,02,59,4.80
2010,06,02,03,00,4.80
2010,06,02,03,01,8.10
2010,06,02,03,02,4.80
2010,06,02,03,03,4.80
2010,06,02,03,04,6.40
2010,06,02,03,05,6.40
2010,06,02,03,06,8.10
2010,06,02,03,07,8.10
2010,06,02,03,08,8.10
2010,06,02,03,09,6.40
2010,06,02,03,10,4.80
2010,06,02,03,11,3.20
2010,06,02,03,12,4.80
2010,06,02,03,13,11.30
2010,06,02,03,14,8.10
2010,06,02,03,15,4.80
2010,06,02,03,16,1.60
2010,06,02,03,17,3.20
2010,06,02,03,18,3.20
2010,06,02,03,19,4.80
2010,06,02,03,20,6.40
2010,06,02,03,21,4.80
2010,06,02,03,22,1.60
2010,06,02,03,23,4.80
2010,06,02,03,24,4.80
2010,06,02,03,25,6.40
2010,06,02,03,26,3.20
2010,06,02,03,28,1.60
2010,06,02,03,29,1.60
2010,06,02,03,31,4.80
2010,06,02,03,32,3.20
2010,06,02,03,33,1.60
2010,06,02,03,34,3.20
2010,06,02,03,35,3.20
2010,06,02,03,36,1.60
2010,06,02,03,40,3.20
2010,06,02,03,42,1.60
2010,06,02,03,44,3.20
2010,06,02,03,45,1.60
2010,06,02,03,49,1.60
2010,06,02,03,50,3.20
2010,06,02,03,51,1.60
2010,06,02,03,53,1.60
2010,06,02,03,54,3.20
2010,06,02,03,55,1.60
2010,06,02,03,56,6.40
2010,06,02,03,57,6.40
2010,06,02,03,58,3.20
2010,06,02,03,59,9.60
2010,06,02,04,00,3.20
2010,06,02,04,01,1.60
2010,06,02,04,02,3.20
2010,06,02,04,03,1.60
2010,06,02,04,05,1.60
2010,06,02,04,06,1.60
2010,06,02,04,07,3.20
2010,06,02,04,08,1.60
2010,06,02,04,09,1.60
2010,06,02,04,11,1.60
2010,06,02,04,12,1.60
2010,06,02,04,14,3.20
2010,06,02,04,15,1.60
2010,06,02,04,16,3.20
2010,06,02,04,17,3.20
2010,06,02,04,18,6.40
2010,06,02,04,19,3.20
2010,06,02,04,21,3.20
2010,06,02,04,22,3.20
2010,06,02,04,23,4.80
2010,06,02,04,24,3.20
2010,06,02,04,25,3.20
2010,06,02,04,26,3.20
2010,06,02,04,27,3.20
2010,06,02,04,28,4.80
2010,06,02,04,29,4.80
2010,06,02,04,30,3.20
2010,06,02,04,31,4.80
2010,06,02,04,32,1.60
2010,06,02,04,33,1.60
2010,06,02,04,34,3.20
2010,06,02,04,35,8.10
2010,06,02,04,36,6.40
2010,06,02,04,37,4.80
2010,06,02,04,38,4.80
2010,06,02,04,39,4.80
2010,06,02,04,40,6.40
2010,06,02,04,41,6.40
2010,06,02,04,43,1.60
2010,06,02,04,44,4.80
2010,06,02,04,45,6.40
2010,06,02,04,46,4.80
2010,06,02,04,47,6.40
2010,06,02,04,48,3.20
2010,06,02,04,49,3.20
2010,06,02,04,50,3.20
2010,06,02,04,51,1.60
2010,06,02,04,52,1.60
2010,06,02,05,00,1.60
2010,06,02,05,01,3.20
2010,06,02,05,02,3.20
2010,06,02,05,03,4.80
2010,06,02,05,04,3.20
2010,06,02,05,05,3.20
2010,06,02,05,06,4.80
2010,06,02,05,07,4.80
2010,06,02,05,08,1.60
2010,06,02,05,09,1.60
2010,06,02,05,11,3.20
2010,06,02,05,12,1.60
2010,06,02,05,14,1.60
2010,06,02,05,18,3.20
2010,06,02,05,19,1.60
2010,06,02,05,20,3.20
2010,06,02,05,21,3.20
2010,06,02,05,22,3.20
2010,06,02,05,23,1.60
2010,06,02,05,24,3.20
2010,06,02,05,25,1.60
2010,06,02,05,26,1.60
2010,06,02,05,27,3.20
2010,06,02,05,28,3.20
2010,06,02,05,29,1.60
2010,06,02,05,31,3.20
2010,06,02,05,32,3.20
2010,06,02,05,33,3.20
2010,06,02,05,34,1.60
2010,06,02,05,35,1.60
2010,06,02,05,36,1.60
2010,06,02,05,37,1.60
2010,06,02,05,38,1.60
2010,06,02,05,39,3.20
2010,06,02,05,40,3.20
2010,06,02,05,41,1.60
2010,06,02,05,42,3.20
2010,06,02,05,43,3.20
2010,06,02,05,44,1.60
2010,06,02,05,45,1.60
2010,06,02,05,46,1.60
2010,06,02,05,49,3.20
2010,06,02,05,50,1.60
2010,06,02,05,54,3.20
2010,06,02,05,55,1.60
2010,06,02,05,56,3.20
2010,06,02,05,57,3.20
2010,06,02,05,58,3.20
2010,06,02,05,59,6.40
2010,06,02,06,00,4.80
2010,06,02,06,01,6.40
2010,06,02,06,02,14.50
2010,06,02,06,03,16.10
2010,06,02,06,04,6.40
2010,06,02,06,05,4.80
2010,06,02,06,06,4.80
2010,06,02,06,07,6.40
2010,06,02,06,08,4.80
2010,06,02,06,09,6.40
2010,06,02,06,10,6.40
2010,06,02,06,11,4.80
2010,06,02,06,12,3.20
2010,06,02,06,13,3.20
2010,06,02,06,14,6.40
2010,06,02,06,15,8.10
2010,06,02,06,16,9.60
2010,06,02,06,17,11.30
2010,06,02,06,18,8.10
2010,06,02,06,19,4.80
2010,06,02,06,20,3.20
2010,06,02,06,21,3.20
2010,06,02,06,22,3.20
2010,06,02,06,23,6.40
2010,06,02,06,24,4.80
2010,06,02,06,25,4.80
2010,06,02,06,26,4.80
2010,06,02,06,27,4.80
2010,06,02,06,28,1.60
2010,06,02,06,29,3.20
2010,06,02,06,30,4.80
2010,06,02,06,31,3.20
2010,06,02,06,32,3.20
2010,06,02,06,34,3.20
2010,06,02,06,35,3.20
2010,06,02,06,36,3.20
2010,06,02,06,37,3.20
2010,06,02,06,38,3.20
2010,06,02,06,39,3.20
2010,06,02,06,40,3.20
2010,06,02,06,41,1.60
2010,06,02,06,44,1.60
2010,06,02,06,45,3.20
2010,06,02,06,46,8.10
2010,06,02,06,47,4.80
2010,06,02,06,48,6.40
2010,06,02,06,49,4.80
2010,06,02,06,50,3.20
2010,06,02,06,51,4.80
2010,06,02,06,52,4.80
2010,06,02,06,53,3.20
2010,06,02,06,54,8.10
2010,06,02,06,55,6.40
2010,06,02,06,56,4.80
2010,06,02,06,57,8.10
2010,06,02,06,58,6.40
2010,06,02,06,59,3.20
2010,06,02,07,00,1.60
2010,06,02,07,01,3.20
2010,06,02,07,02,4.80
2010,06,02,07,03,6.40
2010,06,02,07,04,3.20
2010,06,02,07,05,1.60
2010,06,02,07,06,1.60
2010,06,02,07,07,1.60
2010,06,02,07,08,4.80
2010,06,02,07,09,4.80
2010,06,02,07,10,4.80
2010,06,02,07,11,6.40
2010,06,02,07,12,1.60
2010,06,02,07,13,1.60
2010,06,02,07,14,1.60
2010,06,02,07,17,4.80
2010,06,02,07,18,4.80
2010,06,02,07,19,1.60
2010,06,02,07,20,3.20
2010,06,02,07,21,4.80
2010,06,02,07,22,4.80
2010,06,02,07,23,4.80
2010,06,02,07,24,6.40
2010,06,02,07,25,6.40
2010,06,02,07,26,6.40
2010,06,02,07,27,6.40
2010,06,02,07,28,6.40
2010,06,02,07,29,3.20
2010,06,02,07,30,3.20
2010,06,02,07,31,1.60
2010,06,02,07,32,1.60
2010,06,02,07,33,1.60
2010,06,02,07,35,1.60
2010,06,02,07,36,3.20
2010,06,02,07,37,3.20
2010,06,02,07,38,1.60
2010,06,02,07,39,3.20
2010,06,02,07,40,4.80
2010,06,02,07,41,1.60
2010,06,02,07,42,4.80
2010,06,02,07,43,6.40
2010,06,02,07,44,3.20
2010,06,02,07,45,3.20
2010,06,02,07,46,4.80
2010,06,02,07,47,4.80
2010,06,02,07,48,4.80
2010,06,02,07,49,6.40
2010,06,02,07,50,3.20
2010,06,02,07,51,1.60
2010,06,02,07,52,3.20
2010,06,02,07,53,3.20
2010,06,02,07,54,3.20
2010,06,02,07,55,4.80
2010,06,02,07,56,1.60
2010,06,02,07,59,4.80
2010,06,02,08,03,1.60
2010,06,02,08,05,4.80
2010,06,02,08,06,3.20
2010,06,02,08,07,3.20
2010,06,02,08,08,1.60
2010,06,02,08,09,3.20
2010,06,02,08,10,3.20
2010,06,02,08,11,3.20
2010,06,02,08,12,1.60
2010,06,02,08,13,1.60
2010,06,02,08,14,4.80
2010,06,02,08,15,4.80
2010,06,02,08,16,3.20
2010,06,02,08,17,1.60
2010,06,02,08,18,1.60
2010,06,02,08,19,3.20
2010,06,02,08,20,4.80
2010,06,02,08,21,4.80
2010,06,02,08,22,4.80
2010,06,02,08,23,6.40
2010,06,02,08,24,3.20
2010,06,02,08,25,3.20
2010,06,02,08,26,3.20
2010,06,02,08,27,4.80
2010,06,02,08,28,3.20
2010,06,02,08,29,3.20
2010,06,02,08,30,1.60
2010,06,02,08,31,3.20
2010,06,02,08,32,4.80
2010,06,02,08,33,6.40
2010,06,02,08,34,6.40
2010,06,02,08,35,8.10
2010,06,02,08,36,6.40
2010,06,02,08,37,3.20
2010,06,02,08,38,6.40
2010,06,02,08,39,6.40
2010,06,02,08,40,4.80
2010,06,02,08,41,3.20
2010,06,02,08,42,3.20
2010,06,02,08,43,4.80
2010,06,02,08,44,4.80
2010,06,02,08,45,1.60
2010,06,02,08,46,4.80
2010,06,02,08,47,4.80
2010,06,02,08,48,4.80
2010,06,02,08,49,1.60
2010,06,02,08,50,4.80
2010,06,02,08,51,8.10
2010,06,02,08,52,1.60
2010,06,02,08,53,6.40
2010,06,02,08,54,3.20
2010,06,02,08,55,6.40
2010,06,02,08,56,4.80
2010,06,02,08,57,3.20
2010,06,02,08,58,3.20
2010,06,02,08,59,1.60
2010,06,02,09,00,3.20
2010,06,02,09,01,1.60
2010,06,02,09,02,1.60
2010,06,02,09,03,3.20
2010,06,02,09,04,3.20
2010,06,02,09,05,3.20
2010,06,02,09,06,6.40
2010,06,02,09,07,1.60
2010,06,02,09,08,3.20
2010,06,02,09,09,4.80
2010,06,02,09,10,1.60
2010,06,02,09,11,4.80
2010,06,02,09,12,4.80
2010,06,02,09,14,1.60
2010,06,02,09,15,3.20
2010,06,02,09,16,3.20
2010,06,02,09,17,3.20
2010,06,02,09,19,3.20
2010,06,02,09,20,3.20
2010,06,02,09,21,4.80
2010,06,02,09,22,3.20
2010,06,02,09,23,3.20
2010,06,02,09,24,3.20
2010,06,02,09,25,1.60
2010,06,02,09,26,3.20
2010,06,02,09,27,4.80
2010,06,02,09,28,1.60
2010,06,02,09,29,1.60
2010,06,02,09,30,1.60
2010,06,02,09,31,3.20
2010,06,02,09,32,3.20
2010,06,02,09,33,3.20
2010,06,02,09,34,6.40
2010,06,02,09,35,3.20
2010,06,02,09,36,4.80
2010,06,02,09,37,3.20
2010,06,02,09,39,3.20
2010,06,02,09,40,3.20
2010,06,02,09,41,3.20
2010,06,02,09,42,1.60
2010,06,02,09,43,3.20
2010,06,02,09,44,3.20
2010,06,02,09,45,3.20
2010,06,02,09,46,1.60
2010,06,02,09,47,1.60
2010,06,02,09,48,1.60
2010,06,02,09,49,3.20
2010,06,02,09,50,3.20
2010,06,02,09,51,3.20
2010,06,02,09,52,3.20
2010,06,02,09,53,3.20
2010,06,02,09,54,3.20
2010,06,02,09,55,1.60
2010,06,02,09,56,1.60
2010,06,02,09,57,4.80
2010,06,02,09,58,4.80
2010,06,02,09,59,1.60
2010,06,02,10,00,1.60
2010,06,02,10,01,1.60
2010,06,02,10,02,3.20
2010,06,02,10,03,1.60
2010,06,02,10,04,1.60
2010,06,02,10,05,1.60
2010,06,02,10,06,4.80
2010,06,02,10,07,4.80
2010,06,02,10,08,4.80
2010,06,02,10,09,6.40
2010,06,02,10,10,3.20
2010,06,02,10,11,3.20
2010,06,02,10,12,4.80
2010,06,02,10,13,1.60
2010,06,02,10,14,1.60
2010,06,02,10,15,3.20
2010,06,02,10,16,3.20
2010,06,02,10,17,3.20
2010,06,02,10,18,6.40
2010,06,02,10,19,4.80
2010,06,02,10,20,3.20
2010,06,02,10,21,4.80
2010,06,02,10,22,4.80
2010,06,02,10,23,3.20
2010,06,02,10,24,3.20
2010,06,02,10,25,3.20
2010,06,02,10,26,3.20
2010,06,02,10,27,3.20
2010,06,02,10,28,4.80
2010,06,02,10,29,4.80
2010,06,02,10,30,1.60
2010,06,02,10,31,1.60
2010,06,02,10,32,1.60
2010,06,02,10,33,4.80
2010,06,02,10,34,4.80
2010,06,02,10,35,1.60
2010,06,02,10,36,4.80
2010,06,02,10,37,3.20
2010,06,02,10,38,4.80
2010,06,02,10,39,3.20
2010,06,02,10,40,4.80
2010,06,02,10,41,4.80
2010,06,02,10,42,1.60
2010,06,02,10,43,4.80
2010,06,02,10,44,6.40
2010,06,02,10,45,1.60
2010,06,02,10,46,4.80
2010,06,02,10,47,4.80
2010,06,02,10,48,6.40
2010,06,02,10,49,4.80
2010,06,02,10,50,3.20
2010,06,02,10,51,3.20
2010,06,02,10,52,1.60
2010,06,02,10,53,3.20
2010,06,02,10,54,4.80
2010,06,02,10,55,3.20
2010,06,02,10,56,4.80
2010,06,02,10,57,1.60
2010,06,02,10,58,3.20
2010,06,02,10,59,6.40
2010,06,02,11,00,3.20
2010,06,02,11,01,3.20
2010,06,02,11,02,3.20
2010,06,02,11,03,3.20
2010,06,02,11,04,4.80
2010,06,02,11,05,1.60
2010,06,02,11,06,1.60
2010,06,02,11,07,4.80
2010,06,02,11,08,3.20
2010,06,02,11,09,1.60
2010,06,02,11,11,1.60
2010,06,02,11,12,4.80
2010,06,02,11,13,3.20
2010,06,02,11,14,3.20
2010,06,02,11,15,1.60
2010,06,02,11,16,1.60
2010,06,02,11,17,1.60
2010,06,02,11,18,4.80
2010,06,02,11,19,4.80
2010,06,02,11,20,6.40
2010,06,02,11,21,4.80
2010,06,02,11,22,4.80
2010,06,02,11,23,1.60
2010,06,02,11,24,4.80
2010,06,02,11,25,6.40
2010,06,02,11,26,3.20
2010,06,02,11,28,3.20
2010,06,02,11,29,1.60
2010,06,02,11,30,3.20
2010,06,02,11,31,4.80
2010,06,02,11,32,4.80
2010,06,02,11,33,4.80
2010,06,02,11,34,3.20
2010,06,02,11,35,4.80
2010,06,02,11,36,3.20
2010,06,02,11,37,4.80
2010,06,02,11,38,4.80
2010,06,02,11,39,3.20
2010,06,02,11,40,1.60
2010,06,02,11,41,4.80
2010,06,02,11,42,6.40
2010,06,02,11,43,6.40
2010,06,02,11,44,6.40
2010,06,02,11,45,8.10
2010,06,02,11,46,4.80
2010,06,02,11,47,4.80
2010,06,02,11,48,4.80
2010,06,02,11,49,4.80
2010,06,02,11,50,3.20
2010,06,02,11,51,6.40
2010,06,02,11,52,4.80
2010,06,02,11,53,6.40
2010,06,02,11,54,6.40
2010,06,02,11,55,9.60
2010,06,02,11,56,11.30
2010,06,02,11,57,9.60
2010,06,02,11,58,6.40
2010,06,02,11,59,6.40
2010,06,02,12,00,6.40
2010,06,02,12,01,3.20
2010,06,02,12,02,4.80
2010,06,02,12,03,8.10
2010,06,02,12,04,4.80
2010,06,02,12,05,3.20
2010,06,02,12,06,4.80
2010,06,02,12,07,3.20
2010,06,02,12,08,8.10
2010,06,02,12,09,8.10
2010,06,02,12,10,6.40
2010,06,02,12,11,8.10
2010,06,02,12,12,6.40
2010,06,02,12,13,11.30
2010,06,02,12,14,9.60
2010,06,02,12,15,6.40
2010,06,02,12,16,1.60
2010,06,02,12,17,1.60
2010,06,02,12,18,6.40
2010,06,02,12,19,4.80
2010,06,02,12,20,6.40
2010,06,02,12,21,3.20
2010,06,02,12,22,4.80
2010,06,02,12,23,8.10
2010,06,02,12,24,8.10
2010,06,02,12,25,8.10
2010,06,02,12,26,8.10
2010,06,02,12,27,4.80
2010,06,02,12,28,4.80
2010,06,02,12,29,6.40
2010,06,02,12,30,6.40
2010,06,02,12,31,9.60
2010,06,02,12,32,9.60
2010,06,02,12,33,14.50
2010,06,02,12,34,22.50
2010,06,02,12,35,20.90
2010,06,02,12,36,16.10
2010,06,02,12,37,25.70
2010,06,02,12,38,19.30
2010,06,02,12,39,19.30
2010,06,02,12,40,14.50
2010,06,02,12,41,24.20
2010,06,02,12,42,16.10
2010,06,02,12,43,19.30
2010,06,02,12,44,17.70
2010,06,02,12,45,27.40
2010,06,02,12,46,24.20
2010,06,02,12,47,17.70
2010,06,02,12,48,14.50
2010,06,02,12,49,20.90
2010,06,02,12,50,16.10
2010,06,02,12,51,14.50
2010,06,02,12,52,24.20
2010,06,02,12,53,20.90
2010,06,02,12,54,19.30
2010,06,02,12,55,24.20
2010,06,02,12,56,9.60
2010,06,02,12,57,17.70
2010,06,02,12,58,19.30
2010,06,02,12,59,19.30
2010,06,02,13,00,17.70
2010,06,02,13,01,24.20
2010,06,02,13,02,22.50
2010,06,02,13,03,24.20
2010,06,02,13,04,17.70
2010,06,02,13,05,22.50
2010,06,02,13,06,16.10
2010,06,02,13,07,9.60
2010,06,02,13,08,25.70
2010,06,02,13,09,16.10
2010,06,02,13,10,20.90
2010,06,02,13,11,20.90
2010,06,02,13,12,24.20
2010,06,02,13,13,17.70
2010,06,02,13,14,25.70
2010,06,02,13,15,19.30
2010,06,02,13,16,24.20
2010,06,02,13,17,17.70
2010,06,02,13,18,29.00
2010,06,02,13,19,30.60
2010,06,02,13,20,17.70
2010,06,02,13,21,22.50
2010,06,02,13,22,17.70
2010,06,02,13,23,29.00
2010,06,02,13,24,19.30
2010,06,02,13,25,20.90
2010,06,02,13,26,16.10
2010,06,02,13,27,20.90
2010,06,02,13,28,20.90
2010,06,02,13,29,25.70
2010,06,02,13,30,20.90
2010,06,02,13,31,19.30
2010,06,02,13,32,16.10
2010,06,02,13,33,16.10
2010,06,02,13,34,16.10
2010,06,02,13,35,11.30
2010,06,02,13,36,16.10
2010,06,02,13,37,17.70
2010,06,02,13,38,30.60
2010,06,02,13,39,20.90
2010,06,02,13,40,32.20
2010,06,02,13,41,17.70
2010,06,02,13,42,22.50
2010,06,02,13,43,19.30
2010,06,02,13,44,11.30
2010,06,02,13,45,20.90
2010,06,02,13,46,25.70
2010,06,02,13,47,27.40
2010,06,02,13,48,24.20
2010,06,02,13,49,17.70
2010,06,02,13,50,11.30
2010,06,02,13,51,4.80
2010,06,02,13,52,22.50
2010,06,02,13,53,19.30
2010,06,02,13,54,24.20
2010,06,02,13,55,27.40
2010,06,02,13,56,17.70
2010,06,02,13,57,32.20
2010,06,02,13,58,33.80
2010,06,02,13,59,22.50
2010,06,02,14,00,14.50
2010,06,02,14,01,24.20
2010,06,02,14,02,24.20
2010,06,02,14,03,32.20
2010,06,02,14,04,25.70
2010,06,02,14,05,22.50
2010,06,02,14,06,22.50
2010,06,02,14,07,24.20
2010,06,02,14,08,22.50
2010,06,02,14,09,27.40
2010,06,02,14,10,27.40
2010,06,02,14,11,19.30
2010,06,02,14,12,11.30
2010,06,02,14,13,33.80
2010,06,02,14,14,24.20
2010,06,02,14,15,22.50
2010,06,02,14,16,29.00
2010,06,02,14,17,24.20
2010,06,02,14,18,14.50
2010,06,02,14,19,16.10
2010,06,02,14,20,9.60
2010,06,02,14,21,11.30
2010,06,02,14,22,12.90
2010,06,02,14,23,30.60
2010,06,02,14,24,24.20
2010,06,02,14,25,6.40
2010,06,02,14,26,17.70
2010,06,02,14,27,11.30
2010,06,02,14,28,14.50
2010,06,02,14,29,24.20
2010,06,02,14,30,17.70
2010,06,02,14,31,17.70
2010,06,02,14,32,14.50
2010,06,02,14,33,14.50
2010,06,02,14,34,11.30
2010,06,02,14,35,11.30
2010,06,02,14,36,16.10
2010,06,02,14,37,17.70
2010,06,02,14,38,22.50
2010,06,02,14,39,14.50
2010,06,02,14,40,19.30
2010,06,02,14,41,12.90
2010,06,02,14,42,8.10
2010,06,02,14,43,16.10
2010,06,02,14,44,6.40
2010,06,02,14,45,8.10
2010,06,02,14,46,17.70
2010,06,02,14,47,6.40
2010,06,02,14,48,14.50
2010,06,02,14,49,11.30
2010,06,02,14,50,17.70
2010,06,02,14,51,17.70
2010,06,02,14,52,17.70
2010,06,02,14,53,16.10
2010,06,02,14,54,14.50
2010,06,02,14,55,11.30
2010,06,02,14,56,19.30
2010,06,02,14,57,29.00
2010,06,02,14,58,20.90
2010,06,02,14,59,17.70
2010,06,02,15,00,16.10
2010,06,02,15,01,24.20
2010,06,02,15,02,14.50
2010,06,02,15,03,16.10
2010,06,02,15,04,24.20
2010,06,02,15,05,14.50
2010,06,02,15,06,16.10
2010,06,02,15,07,11.30
2010,06,02,15,08,6.40
2010,06,02,15,09,6.40
2010,06,02,15,10,6.40
2010,06,02,15,11,9.60
2010,06,02,15,12,17.70
2010,06,02,15,13,22.50
2010,06,02,15,14,19.30
2010,06,02,15,15,19.30
2010,06,02,15,16,29.00
2010,06,02,15,17,19.30
2010,06,02,15,18,12.90
2010,06,02,15,19,14.50
2010,06,02,15,20,11.30
2010,06,02,15,21,9.60
2010,06,02,15,22,11.30
2010,06,02,15,23,11.30
2010,06,02,15,24,19.30
2010,06,02,15,25,11.30
2010,06,02,15,26,14.50
2010,06,02,15,27,6.40
2010,06,02,15,28,8.10
2010,06,02,15,29,19.30
2010,06,02,15,30,24.20
2010,06,02,15,31,22.50
2010,06,02,15,32,32.20
2010,06,02,15,33,29.00
2010,06,02,15,34,27.40
2010,06,02,15,35,19.30
2010,06,02,15,36,19.30
2010,06,02,15,37,16.10
2010,06,02,15,38,25.70
2010,06,02,15,39,30.60
2010,06,02,15,40,25.70
2010,06,02,15,41,9.60
2010,06,02,15,42,19.30
2010,06,02,15,43,14.50
2010,06,02,15,44,29.00
2010,06,02,15,45,11.30
2010,06,02,15,46,9.60
2010,06,02,15,47,11.30
2010,06,02,15,48,19.30
2010,06,02,15,49,8.10
2010,06,02,15,50,4.80
2010,06,02,15,51,16.10
2010,06,02,15,52,20.90
2010,06,02,15,53,14.50
2010,06,02,15,54,17.70
2010,06,02,15,55,6.40
2010,06,02,15,56,16.10
2010,06,02,15,57,16.10
2010,06,02,15,58,29.00
2010,06,02,15,59,11.30
2010,06,02,16,00,16.10
2010,06,02,16,01,16.10
2010,06,02,16,02,20.90
2010,06,02,16,03,27.40
2010,06,02,16,04,17.70
2010,06,02,16,05,37.00
2010,06,02,16,06,20.90
2010,06,02,16,07,29.00
2010,06,02,16,08,22.50
2010,06,02,16,09,16.10
2010,06,02,16,10,4.80
2010,06,02,16,11,11.30
2010,06,02,16,12,17.70
2010,06,02,16,13,16.10
2010,06,02,16,14,16.10
2010,06,02,16,15,9.60
2010,06,02,16,16,6.40
2010,06,02,16,17,14.50
2010,06,02,16,18,11.30
2010,06,02,16,19,20.90
2010,06,02,16,20,17.70
2010,06,02,16,21,16.10
2010,06,02,16,22,24.20
2010,06,02,16,23,19.30
2010,06,02,16,24,19.30
2010,06,02,16,25,24.20
2010,06,02,16,26,16.10
2010,06,02,16,27,9.60
2010,06,02,16,28,11.30
2010,06,02,16,29,20.90
2010,06,02,16,30,19.30
2010,06,02,16,31,11.30
2010,06,02,16,32,19.30
2010,06,02,16,33,17.70
2010,06,02,16,34,16.10
2010,06,02,16,35,16.10
2010,06,02,16,36,9.60
2010,06,02,16,37,17.70
2010,06,02,16,38,11.30
2010,06,02,16,39,19.30
2010,06,02,16,40,16.10
2010,06,02,16,41,30.60
2010,06,02,16,42,17.70
2010,06,02,16,43,11.30
2010,06,02,16,44,8.10
2010,06,02,16,45,4.80
2010,06,02,16,46,11.30
2010,06,02,16,47,9.60
2010,06,02,16,48,11.30
2010,06,02,16,49,20.90
2010,06,02,16,50,20.90
2010,06,02,16,51,17.70
2010,06,02,16,52,14.50
2010,06,02,16,53,9.60
2010,06,02,16,54,11.30
2010,06,02,16,55,9.60
2010,06,02,16,56,25.70
2010,06,02,16,57,22.50
2010,06,02,16,58,11.30
2010,06,02,16,59,14.50
2010,06,02,17,00,20.90
2010,06,02,17,01,16.10
2010,06,02,17,02,11.30
2010,06,02,17,03,9.60
2010,06,02,17,04,17.70
2010,06,02,17,05,16.10
2010,06,02,17,06,8.10
2010,06,02,17,07,22.50
2010,06,02,17,08,20.90
2010,06,02,17,09,8.10
2010,06,02,17,10,14.50
2010,06,02,17,11,30.60
2010,06,02,17,12,16.10
2010,06,02,17,13,27.40
2010,06,02,17,14,11.30
2010,06,02,17,15,19.30
2010,06,02,17,16,14.50
2010,06,02,17,17,8.10
2010,06,02,17,18,19.30
2010,06,02,17,19,19.30
2010,06,02,17,20,9.60
2010,06,02,17,21,14.50
2010,06,02,17,22,19.30
2010,06,02,17,23,22.50
2010,06,02,17,24,14.50
2010,06,02,17,25,14.50
2010,06,02,17,26,19.30
2010,06,02,17,27,11.30
2010,06,02,17,28,17.70
2010,06,02,17,29,25.70
2010,06,02,17,30,16.10
2010,06,02,17,31,8.10
2010,06,02,17,32,8.10
2010,06,02,17,33,9.60
2010,06,02,17,34,29.00
2010,06,02,17,35,16.10
2010,06,02,17,36,9.60
2010,06,02,17,37,19.30
2010,06,02,17,38,22.50
2010,06,02,17,39,14.50
2010,06,02,17,40,12.90
2010,06,02,17,41,22.50
2010,06,02,17,42,14.50
2010,06,02,17,43,9.60
2010,06,02,17,44,24.20
2010,06,02,17,45,30.60
2010,06,02,17,46,16.10
2010,06,02,17,47,11.30
2010,06,02,17,48,24.20
2010,06,02,17,49,12.90
2010,06,02,17,50,22.50
2010,06,02,17,51,14.50
2010,06,02,17,52,20.90
2010,06,02,17,53,11.30
2010,06,02,17,54,14.50
2010,06,02,17,55,8.10
2010,06,02,17,56,29.00
2010,06,02,17,57,20.90
2010,06,02,17,58,17.70
2010,06,02,17,59,20.90
2010,06,02,18,00,20.90
2010,06,02,18,01,8.10
2010,06,02,18,02,9.60
2010,06,02,18,03,24.20
2010,06,02,18,04,16.10
2010,06,02,18,05,22.50
2010,06,02,18,06,14.50
2010,06,02,18,07,16.10
2010,06,02,18,08,17.70
2010,06,02,18,09,25.70
2010,06,02,18,10,16.10
2010,06,02,18,11,17.70
2010,06,02,18,12,8.10
2010,06,02,18,13,11.30
2010,06,02,18,14,16.10
2010,06,02,18,15,19.30
2010,06,02,18,16,9.60
2010,06,02,18,17,16.10
2010,06,02,18,18,11.30
2010,06,02,18,19,9.60
2010,06,02,18,20,8.10
2010,06,02,18,21,6.40
2010,06,02,18,22,19.30
2010,06,02,18,23,24.20
2010,06,02,18,24,16.10
2010,06,02,18,25,14.50
2010,06,02,18,26,8.10
2010,06,02,18,27,6.40
2010,06,02,18,28,3.20
2010,06,02,18,29,16.10
2010,06,02,18,30,9.60
2010,06,02,18,31,22.50
2010,06,02,18,32,11.30
2010,06,02,18,33,16.10
2010,06,02,18,34,20.90
2010,06,02,18,35,14.50
2010,06,02,18,36,17.70
2010,06,02,18,37,16.10
2010,06,02,18,38,11.30
2010,06,02,18,39,17.70
2010,06,02,18,40,24.20
2010,06,02,18,41,16.10
2010,06,02,18,42,9.60
2010,06,02,18,43,17.70
2010,06,02,18,44,16.10
2010,06,02,18,45,9.60
2010,06,02,18,46,6.40
2010,06,02,18,47,17.70
2010,06,02,18,48,11.30
2010,06,02,18,49,14.50
2010,06,02,18,50,14.50
2010,06,02,18,51,17.70
2010,06,02,18,52,9.60
2010,06,02,18,53,22.50
2010,06,02,18,54,20.90
2010,06,02,18,55,17.70
2010,06,02,18,56,8.10
2010,06,02,18,57,16.10
2010,06,02,18,58,20.90